TimeMDT,TemperatureF,Dew PointF,Humidity,Sea Level PressureIn,VisibilityMPH,Wind Direction,Wind SpeedMPH,Gust SpeedMPH,PrecipitationIn,Events,Conditions,WindDirDegrees,DateUTC
12:53 AM,68.0,27.0,21,29.63,10.0,NW,18.4,-,N/A,,Clear,310,2013-06-20 06:53:00
1:53 AM,64.9,24.1,21,29.66,10.0,NW,16.1,21.9,N/A,,Clear,320,2013-06-20 07:53:00
2:53 AM,61.0,26.1,26,29.70,10.0,North,8.1,-,N/A,,Clear,350,2013-06-20 08:53:00
3:53 AM,60.1,23.0,24,29.71,10.0,North,6.9,-,N/A,,Clear,360,2013-06-20 09:53:00
4:53 AM,55.0,24.1,30,29.74,10.0,WNW,5.8,-,N/A,,Clear,300,2013-06-20 10:53:00
5:53 AM,53.1,24.1,32,29.76,10.0,NW,8.1,-,N/A,,Clear,310,2013-06-20 11:53:00
6:53 AM,57.9,23.0,26,29.77,10.0,NW,4.6,-,N/A,,Clear,320,2013-06-20 12:53:00
7:53 AM,63.0,19.0,18,29.79,10.0,NNW,10.4,-,N/A,,Clear,330,2013-06-20 13:53:00
8:53 AM,64.0,18.0,17,29.82,10.0,Variable,3.5,-,N/A,,Clear,0,2013-06-20 14:53:00
9:53 AM,66.0,18.0,16,29.82,10.0,Calm,Calm,-,N/A,,Clear,0,2013-06-20 15:53:00
10:53 AM,66.9,16.0,14,29.81,10.0,West,5.8,-,N/A,,Clear,260,2013-06-20 16:53:00
11:53 AM,70.0,16.0,13,29.80,10.0,Variable,4.6,-,N/A,,Clear,0,2013-06-20 17:53:00
12:53 PM,73.0,16.0,11,29.78,10.0,SW,6.9,-,N/A,,Clear,230,2013-06-20 18:53:00
1:53 PM,73.9,14.0,10,29.76,10.0,Calm,Calm,-,N/A,,Clear,0,2013-06-20 19:53:00
2:53 PM,77.0,12.9,9,29.74,10.0,Variable,3.5,-,N/A,,Clear,0,2013-06-20 20:53:00
3:53 PM,81.0,12.0,7,29.71,10.0,Variable,3.5,-,N/A,,Clear,0,2013-06-20 21:53:00
4:53 PM,82.0,10.9,7,29.72,10.0,West,8.1,-,N/A,,Clear,280,2013-06-20 22:53:00
5:53 PM,80.1,12.0,8,29.73,10.0,NW,11.5,-,N/A,,Clear,320,2013-06-20 23:53:00
6:53 PM,80.1,14.0,8,29.73,10.0,NW,11.5,-,N/A,,Clear,310,2013-06-21 00:53:00
7:53 PM,75.0,28.9,18,29.73,10.0,North,18.4,-,N/A,,Clear,350,2013-06-21 01:53:00
8:53 PM,72.0,28.9,20,29.74,10.0,NNW,6.9,-,N/A,,Clear,340,2013-06-21 02:53:00
9:53 PM,72.0,32.0,23,29.76,10.0,NNW,9.2,-,N/A,,Clear,340,2013-06-21 03:53:00
10:53 PM,64.9,36.0,34,29.79,10.0,WNW,11.5,-,N/A,,Clear,290,2013-06-21 04:53:00
11:53 PM,64.0,36.0,35,29.79,10.0,WNW,16.1,-,N/A,,Clear,300,2013-06-21 05:53:00